Reynoldsville, PA

3:08 AM EST on December 06, 2016 (GMT -0500)
Du Bois-Jefferson County

Weather History for KDUJ - May, 2013

Change the Weather History Date:

Wednesday, May 15, 2013

  Actual Average Record
Temperature  
Mean Temperature 64 °F 56 °F  
Max Temperature 80 °F 67 °F 85 °F (1991)
Min Temperature 47 °F 45 °F 33 °F (2016)
Degree Days  
Heating Degree Days 1 10  
Month to date heating degree days 134 168  
Since 1 July heating degree days 6423 6681  
Cooling Degree Days 0 1  
Month to date cooling degree days 0 3  
Year to date cooling degree days 1 7  
Growing Degree Days 13 (Base 50)    
Moisture  
Dew Point 48 °F    
Average Humidity 58    
Maximum Humidity 77    
Minimum Humidity 38    
Precipitation  
Precipitation 0.11 in 0.14 in 0.93 in (1989)
Month to date precipitation 0.93 1.95  
Sea Level Pressure  
Sea Level Pressure 29.79 in    
Wind  
Wind Speed 11 mph (SW)    
Max Wind Speed 31 mph    
Max Gust Speed 43 mph    
Visibility 10 miles    
Events Rain , Thunderstorm    
T = Trace of Precipitation, MM = Missing Value Source: NWS Daily Summary

Daily Weather History Graph

Daily Weather History Graph

Search for Another Location

Airport or City:

Trip Planner

Search our weather history database for the weather conditions in past years. The results will help you decide how hot, cold, wet, or windy it might be!

Date:

Astronomy

May. 15, 2013 Rise Set
Actual Time 5:57 AM EDT 8:27 PM EDT
Civil Twilight 5:25 AM EDT 8:58 PM EDT
Nautical Twilight 4:46 AM EDT 9:38 PM EDT
Astronomical Twilight 4:03 AM EDT 10:22 PM EDT
Moon 10:31 AM EDT (5/15) 12:12 AM EDT (5/15)
Length of Visible Light 15h 33m
Length of Day
14h 30m
Waxing Crescent, 26% of the Moon is Illuminated
May 15
Waxing Crescent
May 18
First Quarter
May 25
Full
May 31
Last Quarter
Jun 8
New

Hourly Weather History & Observations

Time (EDT) Temp. Heat Index Dew Point Humidity Pressure Visibility Wind Dir Wind Speed Gust Speed Precip Events Conditions
12:56 AM 46.9 °F - 37.9 °F 71% 29.94 in 10.0 mi SE 10.4 mph - N/A   Overcast
1:56 AM 48.0 °F - 37.0 °F 66% 29.92 in 10.0 mi ESE 10.4 mph - N/A   Overcast
2:56 AM 48.0 °F - 37.0 °F 66% 29.90 in 10.0 mi ESE 10.4 mph - N/A   Overcast
3:56 AM 48.0 °F - 37.0 °F 66% 29.88 in 10.0 mi ESE 11.5 mph - N/A   Scattered Clouds
4:56 AM 48.9 °F - 37.0 °F 64% 29.86 in 10.0 mi ESE 5.8 mph - N/A   Clear
5:56 AM 48.9 °F - 37.9 °F 66% 29.83 in 10.0 mi ESE 11.5 mph - N/A   Overcast
6:56 AM 50.0 °F - 39.0 °F 66% 29.86 in 10.0 mi Calm Calm - N/A   Overcast
7:56 AM 50.0 °F - 42.1 °F 74% 29.81 in 10.0 mi SSE 5.8 mph - 0.01 in   Overcast
8:56 AM 54.0 °F - 46.9 °F 77% 29.80 in 10.0 mi SE 5.8 mph - 0.01 in   Mostly Cloudy
9:56 AM 59.0 °F - 52.0 °F 78% 29.77 in 10.0 mi South 5.8 mph - 0.00 in Rain Light Rain
10:44 AM 60.8 °F - 55.4 °F 82% 29.80 in 9.0 mi SW 6.9 mph - 0.01 in Rain Light Rain
10:56 AM 61.0 °F - 55.0 °F 81% 29.79 in 4.0 mi SW 10.4 mph - 0.03 in Rain , Thunderstorm Light Rain
11:34 AM 60.8 °F - 55.4 °F 82% 29.78 in 5.0 mi SW 13.8 mph 21.9 mph 0.04 in Rain Light Rain
11:56 AM 63.0 °F - 55.9 °F 78% 29.76 in 10.0 mi SSW 6.9 mph 25.3 mph 0.06 in   Overcast
12:56 PM 71.1 °F - 59.0 °F 66% 29.75 in 10.0 mi WSW 17.3 mph - N/A   Clear
1:56 PM 73.9 °F - 57.0 °F 55% 29.73 in 10.0 mi WSW 26.5 mph 38.0 mph N/A   Partly Cloudy
2:56 PM 75.9 °F - 55.9 °F 50% 29.72 in 10.0 mi West 21.9 mph 34.5 mph N/A   Clear
3:56 PM 78.1 °F - 55.9 °F 46% 29.72 in 10.0 mi WSW 26.5 mph 35.7 mph N/A   Mostly Cloudy
4:56 PM 80.1 °F 80.1 °F 55.0 °F 42% 29.70 in 10.0 mi West 21.9 mph 33.4 mph N/A   Partly Cloudy
5:56 PM 79.0 °F - 55.0 °F 44% 29.70 in 10.0 mi West 21.9 mph 29.9 mph N/A   Partly Cloudy
6:56 PM 77.0 °F - 54.0 °F 45% 29.71 in 10.0 mi WNW 16.1 mph 24.2 mph N/A   Partly Cloudy
7:56 PM 75.0 °F - 48.9 °F 40% 29.73 in 10.0 mi WNW 9.2 mph 18.4 mph N/A   Clear
8:56 PM 72.0 °F - 46.0 °F 40% 29.75 in 10.0 mi WNW 6.9 mph - N/A   Clear
9:56 PM 70.0 °F - 46.9 °F 44% 29.77 in 10.0 mi West 4.6 mph - N/A   Mostly Cloudy
10:56 PM 68.0 °F - 46.9 °F 47% 29.77 in 10.0 mi WNW 5.8 mph - N/A   Clear
11:56 PM 66.0 °F - 46.9 °F 50% 29.78 in 10.0 mi NNW 3.5 mph - N/A   Clear